timestamp,wind_dir_avg,wind_spd_avg,wind_spd_max_dir,wind_spd_gust,battery_voltage,lat,long
2024-05-01 00:04:00+00:00,315.0,0.01,52.0,0.0,12.17,47.59359,-54.27349
2024-05-01 00:14:00+00:00,315.0,0.01,52.0,0.0,12.17,47.59359,-54.27349
2024-05-01 00:24:00+00:00,315.0,0.01,52.0,0.0,12.17,47.59359,-54.27349
2024-05-01 00:34:00+00:00,315.0,0.01,52.0,0.0,12.17,47.59359,-54.27349
2024-05-01 00:44:00+00:00,315.0,0.01,52.0,0.0,12.17,47.59359,-54.27349
2024-05-01 00:54:00+00:00,315.0,0.01,52.0,0.0,12.17,47.59359,-54.27349
2024-05-01 01:04:00+00:00,315.0,0.01,52.0,0.0,12.17,47.59359,-54.27349
2024-05-01 01:14:01+00:00,315.0,0.01,52.0,0.0,12.17,47.59359,-54.27349
2024-05-01 01:24:01+00:00,315.0,0.01,52.0,0.0,12.17,47.59359,-54.27349
2024-05-01 01:34:01+00:00,315.0,0.01,52.0,0.0,12.17,47.59359,-54.27349
2024-05-01 01:44:01+00:00,315.0,0.01,52.0,0.0,12.17,47.59359,-54.27349
2024-05-01 01:54:01+00:00,315.0,0.01,52.0,0.0,12.17,47.59359,-54.27349
2024-05-01 02:04:01+00:00,315.0,0.01,52.0,0.0,12.17,47.59359,-54.27349
2024-05-01 02:14:00+00:00,315.0,0.01,52.0,0.0,12.09,47.59359,-54.27349
2024-05-01 02:24:00+00:00,315.0,0.01,52.0,0.0,12.09,47.59359,-54.27349
2024-05-01 02:34:00+00:00,315.0,0.01,52.0,0.0,12.09,47.59359,-54.27349
2024-05-01 02:44:00+00:00,315.0,0.01,52.0,0.0,12.09,47.59359,-54.27349
2024-05-01 02:54:00+00:00,315.0,0.01,52.0,0.0,12.09,47.59359,-54.27349
2024-05-01 03:04:00+00:00,315.0,0.01,52.0,0.0,12.09,47.59359,-54.27349
2024-05-01 03:14:00+00:00,315.0,0.01,52.0,0.0,12.09,47.59359,-54.27349
2024-05-01 03:24:00+00:00,315.0,0.01,52.0,0.0,12.09,47.59359,-54.27349
2024-05-01 03:34:00+00:00,315.0,0.01,52.0,0.0,12.09,47.59359,-54.27349
2024-05-01 03:44:00+00:00,315.0,0.01,52.0,0.0,12.09,47.59359,-54.27349
2024-05-01 03:54:00+00:00,315.0,0.01,52.0,0.0,12.09,47.59359,-54.27349
2024-05-01 04:04:00+00:00,315.0,0.01,52.0,0.0,12.09,47.59359,-54.27349
2024-05-01 04:14:00+00:00,315.0,0.01,52.0,0.0,12.01,47.59359,-54.27349
2024-05-01 04:24:00+00:00,315.0,0.01,52.0,0.0,12.01,47.59359,-54.27349
2024-05-01 04:34:00+00:00,315.0,0.01,52.0,0.0,12.01,47.59359,-54.27349
2024-05-01 04:44:00+00:00,315.0,0.01,52.0,0.0,12.01,47.59359,-54.27349
2024-05-01 04:54:00+00:00,315.0,0.01,52.0,0.0,12.01,47.59359,-54.27349
2024-05-01 05:04:00+00:00,315.0,0.01,52.0,0.0,12.01,47.59359,-54.27349
2024-05-01 05:14:00+00:00,315.0,0.01,52.0,0.0,12.01,47.59359,-54.27349
2024-05-01 05:24:00+00:00,315.0,0.01,52.0,0.0,12.01,47.59359,-54.27349
2024-05-01 05:34:00+00:00,315.0,0.01,52.0,0.0,12.01,47.59359,-54.27349
2024-05-01 05:44:00+00:00,315.0,0.01,52.0,0.0,12.01,47.59359,-54.27349
2024-05-01 05:54:00+00:00,315.0,0.01,52.0,0.0,12.01,47.59359,-54.27349
2024-05-01 06:04:00+00:00,315.0,0.01,52.0,0.0,12.01,47.59359,-54.27349
2024-05-01 06:14:00+00:00,315.0,0.01,52.0,0.0,11.93,47.59359,-54.27349
2024-05-01 06:24:00+00:00,315.0,0.01,52.0,0.0,11.93,47.59359,-54.27349
2024-05-01 06:34:00+00:00,315.0,0.01,52.0,0.0,11.93,47.59359,-54.27349
2024-05-01 06:44:00+00:00,315.0,0.01,52.0,0.0,11.93,47.59359,-54.27349
2024-05-01 06:54:00+00:00,315.0,0.01,52.0,0.0,11.93,47.59359,-54.27349
2024-05-01 07:04:00+00:00,315.0,0.01,52.0,0.0,11.93,47.59359,-54.27349
2024-05-01 07:14:00+00:00,315.0,0.01,52.0,0.0,12.01,47.59359,-54.27349
2024-05-01 07:24:00+00:00,315.0,0.01,52.0,0.0,12.01,47.59359,-54.27349
2024-05-01 07:34:00+00:00,315.0,0.01,52.0,0.0,12.01,47.59359,-54.27349
2024-05-01 07:44:00+00:00,315.0,0.01,52.0,0.0,12.01,47.59359,-54.27349
2024-05-01 07:54:00+00:00,315.0,0.01,52.0,0.0,12.01,47.59359,-54.27349
2024-05-01 08:04:00+00:00,315.0,0.01,52.0,0.0,12.01,47.59359,-54.27349
2024-05-01 08:14:00+00:00,315.0,0.01,52.0,0.0,11.93,47.59359,-54.27349
2024-05-01 08:24:00+00:00,315.0,0.01,52.0,0.0,11.93,47.59359,-54.27349
2024-05-01 08:34:00+00:00,315.0,0.01,52.0,0.0,11.93,47.59359,-54.27349
2024-05-01 08:44:00+00:00,315.0,0.01,52.0,0.0,11.93,47.59359,-54.27349
2024-05-01 08:54:00+00:00,315.0,0.01,52.0,0.0,11.93,47.59359,-54.27349
2024-05-01 09:04:00+00:00,315.0,0.01,52.0,0.0,11.93,47.59359,-54.27349
2024-05-01 09:14:01+00:00,315.0,0.01,52.0,0.0,11.93,47.59359,-54.27349
2024-05-01 09:24:01+00:00,315.0,0.01,52.0,0.0,11.93,47.59359,-54.27349
2024-05-01 09:34:01+00:00,315.0,0.01,52.0,0.0,11.93,47.59359,-54.27349
2024-05-01 09:44:01+00:00,315.0,0.01,52.0,0.0,11.93,47.59359,-54.27349
2024-05-01 09:54:01+00:00,315.0,0.01,52.0,0.0,11.93,47.59359,-54.27349
2024-05-01 10:04:01+00:00,315.0,0.01,52.0,0.0,11.93,47.59359,-54.27349
2024-05-01 10:14:00+00:00,315.0,0.01,52.0,0.0,12.41,47.59359,-54.27349
2024-05-01 10:24:00+00:00,315.0,0.01,52.0,0.0,12.41,47.59359,-54.27349
2024-05-01 10:34:00+00:00,315.0,0.01,52.0,0.0,12.41,47.59359,-54.27349
2024-05-01 10:44:00+00:00,315.0,0.01,52.0,0.0,12.41,47.59359,-54.27349
2024-05-01 10:54:00+00:00,315.0,0.01,52.0,0.0,12.41,47.59359,-54.27349
2024-05-01 11:04:00+00:00,315.0,0.01,52.0,0.0,12.41,47.59359,-54.27349
2024-05-01 11:14:00+00:00,315.0,0.01,52.0,0.0,13.29,47.59359,-54.27349
2024-05-01 11:24:00+00:00,315.0,0.01,52.0,0.0,13.29,47.59359,-54.27349
2024-05-01 11:34:00+00:00,315.0,0.01,52.0,0.0,13.29,47.59359,-54.27349
2024-05-01 11:44:00+00:00,315.0,0.01,52.0,0.0,13.29,47.59359,-54.27349
2024-05-01 11:54:00+00:00,315.0,0.01,52.0,0.0,13.29,47.59359,-54.27349
2024-05-01 12:04:00+00:00,315.0,0.01,52.0,0.0,13.29,47.59359,-54.27349
2024-05-01 12:14:01+00:00,315.0,0.01,52.0,0.0,13.68,47.59359,-54.27349
2024-05-01 12:24:01+00:00,315.0,0.01,52.0,0.0,13.68,47.59359,-54.27349
2024-05-01 12:34:01+00:00,315.0,0.01,52.0,0.0,13.68,47.59359,-54.27349
2024-05-01 12:44:01+00:00,315.0,0.01,52.0,0.0,13.68,47.59359,-54.27349
2024-05-01 12:54:01+00:00,315.0,0.01,52.0,0.0,13.68,47.59359,-54.27349
2024-05-01 13:04:01+00:00,315.0,0.01,52.0,0.0,13.68,47.59359,-54.27349
2024-05-01 13:14:00+00:00,315.0,0.01,52.0,0.0,13.6,47.59359,-54.27349
2024-05-01 13:24:00+00:00,315.0,0.01,52.0,0.0,13.6,47.59359,-54.27349
2024-05-01 13:34:00+00:00,315.0,0.01,52.0,0.0,13.6,47.59359,-54.27349
2024-05-01 13:44:00+00:00,315.0,0.01,52.0,0.0,13.6,47.59359,-54.27349
2024-05-01 13:54:00+00:00,315.0,0.01,52.0,0.0,13.6,47.59359,-54.27349
2024-05-01 14:04:00+00:00,315.0,0.01,52.0,0.0,13.6,47.59359,-54.27349
2024-05-01 14:14:00+00:00,315.0,0.01,52.0,0.0,14.48,47.59359,-54.27349
2024-05-01 14:24:00+00:00,315.0,0.01,52.0,0.0,14.48,47.59359,-54.27349
2024-05-01 14:34:00+00:00,315.0,0.01,52.0,0.0,14.48,47.59359,-54.27349
2024-05-01 14:44:00+00:00,315.0,0.01,52.0,0.0,14.48,47.59359,-54.27349
2024-05-01 14:54:00+00:00,315.0,0.01,52.0,0.0,14.48,47.59359,-54.27349
2024-05-01 15:04:00+00:00,315.0,0.01,52.0,0.0,14.48,47.59359,-54.27349
2024-05-01 15:14:00+00:00,315.0,0.01,52.0,0.0,14.56,47.59359,-54.27349
2024-05-01 15:24:00+00:00,315.0,0.01,52.0,0.0,14.56,47.59359,-54.27349
2024-05-01 15:34:00+00:00,315.0,0.01,52.0,0.0,14.56,47.59359,-54.27349
2024-05-01 15:44:00+00:00,315.0,0.01,52.0,0.0,14.56,47.59359,-54.27349
2024-05-01 15:54:00+00:00,315.0,0.01,52.0,0.0,14.56,47.59359,-54.27349
2024-05-01 16:04:00+00:00,315.0,0.01,52.0,0.0,14.56,47.59359,-54.27349
2024-05-01 16:14:00+00:00,315.0,0.01,52.0,0.0,14.32,47.59359,-54.27349
2024-05-01 16:24:00+00:00,315.0,0.01,52.0,0.0,14.32,47.59359,-54.27349
2024-05-01 16:34:00+00:00,315.0,0.01,52.0,0.0,14.32,47.59359,-54.27349
2024-05-01 16:44:00+00:00,315.0,0.01,52.0,0.0,14.32,47.59359,-54.27349
2024-05-01 16:54:00+00:00,315.0,0.01,52.0,0.0,14.32,47.59359,-54.27349
2024-05-01 17:04:00+00:00,315.0,0.01,52.0,0.0,14.32,47.59359,-54.27349
2024-05-01 17:14:00+00:00,315.0,0.01,52.0,0.0,13.68,47.59359,-54.27349
2024-05-01 17:24:00+00:00,315.0,0.01,52.0,0.0,13.68,47.59359,-54.27349
2024-05-01 17:34:00+00:00,315.0,0.01,52.0,0.0,13.68,47.59359,-54.27349
2024-05-01 17:44:00+00:00,315.0,0.01,52.0,0.0,13.68,47.59359,-54.27349
2024-05-01 17:54:00+00:00,315.0,0.01,52.0,0.0,13.68,47.59359,-54.27349
2024-05-01 18:04:00+00:00,315.0,0.01,52.0,0.0,13.68,47.59359,-54.27349
2024-05-01 18:14:01+00:00,315.0,0.01,52.0,0.0,13.6,47.59359,-54.27349
2024-05-01 18:24:01+00:00,315.0,0.01,52.0,0.0,13.6,47.59359,-54.27349
2024-05-01 18:34:01+00:00,315.0,0.01,52.0,0.0,13.6,47.59359,-54.27349
2024-05-01 18:44:01+00:00,315.0,0.01,52.0,0.0,13.6,47.59359,-54.27349
2024-05-01 18:54:01+00:00,315.0,0.01,52.0,0.0,13.6,47.59359,-54.27349
2024-05-01 19:04:01+00:00,315.0,0.01,52.0,0.0,13.6,47.59359,-54.27349
2024-05-01 19:14:01+00:00,315.0,0.01,52.0,0.0,13.6,47.59359,-54.27349
2024-05-01 19:24:01+00:00,315.0,0.01,52.0,0.0,13.6,47.59359,-54.27349
2024-05-01 19:34:01+00:00,315.0,0.01,52.0,0.0,13.6,47.59359,-54.27349
2024-05-01 19:44:01+00:00,315.0,0.01,52.0,0.0,13.6,47.59359,-54.27349
2024-05-01 19:54:01+00:00,315.0,0.01,52.0,0.0,13.6,47.59359,-54.27349
2024-05-01 20:04:01+00:00,315.0,0.01,52.0,0.0,13.6,47.59359,-54.27349
2024-05-01 20:14:00+00:00,315.0,0.01,52.0,0.0,13.29,47.59359,-54.27349
2024-05-01 20:24:00+00:00,315.0,0.01,52.0,0.0,13.29,47.59359,-54.27349
2024-05-01 20:34:00+00:00,315.0,0.01,52.0,0.0,13.29,47.59359,-54.27349
2024-05-01 20:44:00+00:00,315.0,0.01,52.0,0.0,13.29,47.59359,-54.27349
2024-05-01 20:54:00+00:00,315.0,0.01,52.0,0.0,13.29,47.59359,-54.27349
2024-05-01 21:04:00+00:00,315.0,0.01,52.0,0.0,13.29,47.59359,-54.27349
2024-05-01 21:14:00+00:00,315.0,0.01,52.0,0.0,13.29,47.59359,-54.27349
2024-05-01 21:24:00+00:00,315.0,0.01,52.0,0.0,13.29,47.59359,-54.27349
2024-05-01 21:34:00+00:00,315.0,0.01,52.0,0.0,13.29,47.59359,-54.27349
2024-05-01 21:44:00+00:00,315.0,0.01,52.0,0.0,13.29,47.59359,-54.27349
2024-05-01 21:54:00+00:00,315.0,0.01,52.0,0.0,13.29,47.59359,-54.27349
2024-05-01 22:04:00+00:00,315.0,0.01,52.0,0.0,13.29,47.59359,-54.27349
2024-05-01 22:14:00+00:00,315.0,0.01,52.0,0.0,12.81,47.59359,-54.27349
2024-05-01 22:24:00+00:00,315.0,0.01,52.0,0.0,12.81,47.59359,-54.27349
2024-05-01 22:34:00+00:00,315.0,0.01,52.0,0.0,12.81,47.59359,-54.27349
2024-05-01 22:44:00+00:00,315.0,0.01,52.0,0.0,12.81,47.59359,-54.27349
2024-05-01 22:54:00+00:00,315.0,0.01,52.0,0.0,12.81,47.59359,-54.27349
2024-05-01 23:04:00+00:00,315.0,0.01,52.0,0.0,12.81,47.59359,-54.27349
2024-05-01 23:14:00+00:00,315.0,0.01,52.0,0.0,12.33,47.59359,-54.27349
2024-05-01 23:24:00+00:00,315.0,0.01,52.0,0.0,12.33,47.59359,-54.27349
2024-05-01 23:34:00+00:00,315.0,0.01,52.0,0.0,12.33,47.59359,-54.27349
2024-05-01 23:44:00+00:00,315.0,0.01,52.0,0.0,12.33,47.59359,-54.27349
2024-05-01 23:54:00+00:00,315.0,0.01,52.0,0.0,12.33,47.59359,-54.27349
